Regional Weather Roundup
Issued by NWS Wakefield, VA

Home | Current Version | Previous Version | Graphics & Text | Print | Product List | Glossary On
Versions: 1 2 3 4 5 6 7 8 9 10 11 12 13 14 15 16 17 18 19 20 21 22 23 24 25 26 27 28 29 30 31 32 33 34 35 36 37 38 39 40 41 42 43 44 45 46 47 48 49 50
000
ASUS41 KAKQ 251615
RWRAKQ

REGIONAL WEATHER ROUNDUP
NATIONAL WEATHER SERVICE WAKEFIELD VA
1200 PM EDT MON JUL 25 2016

Note: "fair" indicates few or no clouds below 12,000 feet with no
significant weather and/or obstructions to visibility. * = Denotes
station may not report precipitation (e.g., rain,snow,etc.),
thunder or fog.

VAZ042-051-052>054-056-251700-
NORTHERN VIRGINIA

CITY           SKY/WX    TMP DP  RH WIND       PRES   REMARKS
WASH NATIONAL  PTSUNNY   94  78  60 S10       29.96F HX 110
DULLES         PTSUNNY   94  72  48 S3        29.96F HX 102
FORT BELVOIR   FAIR      94  76  54 S6        29.95F HX 107
QUANTICO       PTSUNNY   91  78  65 S12       29.97F HX 106
FREDERICKSBRG*   N/A     94  76  54 SW7       29.96F HX 107
STAFFORD*      FAIR      94  71  47 W6        30.01F HX 101
WARRENTON      FAIR      95  70  44 W3        29.98S HX 101
CULPEPER*      FAIR      93  78  60 W5        29.98F HX 108
MANASSAS*      SUNNY     93  73  52 CALM      29.97S HX 102
LEESBURG*      FAIR      97  77  52 W6        29.98S HX 112
WINCHESTER     FAIR      91  72  52 CALM      29.99S HX  98
FRONT ROYAL*   FAIR      90  73  58 CALM      29.99S HX  98
LURAY*         FAIR      90  73  58 SW6       30.01F HX  98
$$

VAZ048-049-060>072-079>083-251700-
CENTRAL AND SOUTH CENTRAL VIRGINIA

CITY           SKY/WX    TMP DP  RH WIND       PRES   REMARKS
RICHMOND       CLOUDY    91  75  59 SW10      29.99F HX 101
CHESTERFIELD*  FAIR      91  68  46 S8        30.01F HX  95
PETERSBURG*    FAIR      93  77  58 SW6       30.01S HX 106
HANOVER        FAIR      94  71  47 SW10G21   30.00F HX 101
TAPPAHANNOCK*  FAIR      95  71  45 SE9       30.00S HX 102
QUINTON*       FAIR      90  78  66 SW5       29.99F HX 104
CHARLOTTSVILLE FAIR      96  72  45 CALM      29.99F HX 104
GORDONSVILLE*  FAIR      93  76  57 SW7       29.98F HX 105
ORANGE*          N/A     95  72  46 S5        30.01S HX 103
LOUISA*        FAIR      93  79  62 SW7       29.99S HX 110
BUMPASS*       FAIR      92  77  61 SW9       30.00S HX 106
FARMVILLE*     FAIR      93  72  49 SW8       30.00R HX 100
CREWE*         FAIR      92  77  60 S6        30.01S HX 106
FORT PICKETT*  FAIR      91  78  66 SW8       30.01F HX 105
CHASE CITY*    FAIR      92  77  61 S5        30.03S HX 105
CLARKSVILLE*   FAIR      91  79  66 S5        30.02F HX 107
SOUTH HILL*    FAIR      92  76  59 SW10      30.07F HX 105
LAWRENCEVILLE* FAIR      94  77  57 SW8       30.01F HX 107
EMPORIA*       FAIR      91  75  59 S7        30.02F HX 102
$$

VAZ088>098-251700-
SOUTHEAST VIRGINIA

CITY           SKY/WX    TMP DP  RH WIND       PRES   REMARKS
NORFOLK        FAIR      96  73  47 SW14      30.01S HX 105
VIRGINIA BEACH PTSUNNY   97  74  47 SW12      30.01S HX 108
NORFOLK NAVAL  PTSUNNY   94  75  54 SW9G16    30.02F HX 105
WEST POINT*    FAIR      91  75  60 SW7       30.01F HX 101
SALUDA*        FAIR      91  79  68 SW6       29.99F HX 107
NEWPORT NEWS   FAIR      91  78  65 SW12      30.00F HX 106
LANGLEY AFB    MOSUNNY   92  78  64 S13       30.00F HX 107
FORT EUSTIS    MOSUNNY   93  79  63 SW8       29.99F HX 110
WILLIAMSBURG*  FAIR      95  77  55 SW8       30.01F HX 109
HR EXEC AP*    FAIR      93  79  62 SW10      30.03F HX 110
FRANKLIN*      FAIR      91  76  62 SW7       30.02F HX 102
US460-WAKEFLD  FAIR      92  75  57 SW6       30.01F HX 103
$$

VAZ020-022-025-037-045-251700-
WEST CENTRAL AND SOUTHWEST VIRGINIA

CITY           SKY/WX    TMP DP  RH WIND       PRES   REMARKS
STAUNTON*      FAIR      89  73  58 CALM      30.05S HX  96
WAYNESBORO*    FAIR      89  70  53 CALM      30.06R
HOT SPRINGS VA FAIR      79  72  78 W7        30.21S
LYNCHBURG      FAIR      88  72  58 S7        30.05S
DANVILLE       FAIR      91  76  61 VRB6      30.03S HX 103
SOUTH BOSTON*  FAIR      92  76  60 SW5       30.02S HX 105
MARTINSVILLE   FAIR      91  73  55 SW5       30.07S HX  99
ROANOKE        FAIR      91  72  53 SW7       30.07S HX  98
BLACKSBURG     PTSUNNY   84  73  70 SW3       30.16R
DUBLIN*        PTSUNNY   87  71  59 NW5       30.14S
MARION*        FAIR      85  72  65 SW8       30.19R
HILLSVILLE*    FAIR      84  71  63 W3        30.16S
RICHLANDS*     FAIR      83  74  74 NW6       30.17F
WISE*          CLOUDY    81  64  57 CALM      30.19R
ABINGDON*      PTSUNNY   84  72  67 W8        30.15S
$$

MDZ021>025-VAZ099-100-251700-
SOUTHERN MARYLAND AND THE DELMARVA PENINSULA

CITY           SKY/WX    TMP DP  RH WIND       PRES   REMARKS
PATUXENT RIVER CLOUDY    96  71  44 SW14      29.96F HX 103
BAY BRIDGE APT SUNNY     91  79  66 W7        29.95S HX 107
LEONARDTOWN    SUNNY     91  70  49 SW10      29.98F HX  97
DOVER          SUNNY     91  79  66 VRB7      29.93F HX 107
GEORGETOWN     SUNNY     94  75  54 W7        29.96S HX 105
EASTON         SUNNY     93  82  70 SW5       29.99F HX 117
CAMBRIDGE      SUNNY     90  77  66 CALM      29.95F HX 102
SALISBURY      SUNNY     91  76  61 SW14      29.96F HX 103
OCEAN CITY     SUNNY     95  76  53 VRB6      29.96S HX 108
WALLOPS ISLAND FAIR      92  76  59 W13       29.98S HX 104
ACCOMACK*      FAIR      91  75  59 W3G18     29.99S HX 102
$$

NCZ012>017-030>032-251700-
NORTH CENTRAL AND EASTERN NORTH CAROLINA

CITY           SKY/WX    TMP DP  RH WIND       PRES   REMARKS
ROANOKE RAPIDS FAIR      90  77  66 S8        30.03S HX 102
RALEIGH        MOSUNNY   92  78  63 S6        30.05S HX 107
ELIZABETH CITY MOSUNNY   90  78  68 S8        30.04S HX 104
AHOSKIE*       SUNNY     89  78  69 CALM      30.04S HX 103
EDENTON*       SUNNY     91  77  62 SW5       30.05S HX 104
CURRITUCK*     MOSUNNY   92  76  60 SW8       30.04S HX 104
KILL DEVIL HLS SUNNY     94  75  53 SW8       30.04S HX 106
MANTEO           N/A     90  77  66 W10       30.05S HX 103
CAPE HATTERAS  SUNNY     86  78  77 SW8       30.08S HX  98
TARBORO*       FAIR      92  79  65 SW5       30.04F HX 108
GOLDSBORO      MOSUNNY   92  79  66 SW8       30.04S HX 108
WASHINGTON     SUNNY     89  77  66 S7        30.05F HX 102
GREENVILLE     MOSUNNY   91  77  62 SW9       30.06S HX 105
NEW BERN       MOSUNNY   91  74  57 W8        30.08R HX 100
WILMINGTON     MOSUNNY   90  74  59 SW10      30.08R HX  99
$$

VAZ048-251700-
ELSEWHERE

CITY           SKY/WX    TMP DP  RH WIND       PRES   REMARKS
HARRISBURG PA  CLOUDY    90  78  68 CALM      29.92F HX 104
BALTIMORE      MOSUNNY   94  73  50 SW5       29.94F HX 103
ANNAPOLIS      SUNNY     91  78  65 SE5       29.94F HX 106
ANDREWS AFB    FAIR      93  76  57 VRB2      29.96F HX 104
PHILADELPHIA   MOSUNNY   88  75  65 VRB7      29.93F HX  97
GREENSBORO     CLOUDY    92  73  53 SW7       30.05F HX 100
ROCKY MOUNT    SUNNY     90  78  68 SW8       30.04S HX 104
$$

VAZ100-251700-
MARINE

STATION/POSITION TIME  TEMP    WIND        PRES    WAVE   SWELL
                       AIR SEA DIR/SP/G            HT/PER HT/PER
                 (UTC) (F)     (DEG/KT/KT) (MB)    (FT/S) (FT/S)
BRANDYWINE LGT   1500   79     150/  3/  3   N/A
CAPE MAY NJ      1500   82 71  270/  3/  3 1014.1S
LEWES DE         1500   81 73   60/  5/  5 1014.3F
OCEAN-CITY-INLET 1500   87 73  260/ 10/ 13 1014.9S
WACHAPREAGUE VA  1500   91 85  260/  6/  9 1015.6R
THOMAS POINT MD  1600   85 83  170/  7/  7 1015.5F
GOOSES REEF MD   1600   89 85  160/  2/  2 1015.4F   1
COVE POINT MD    1500   90     280/  8/ 10 1015.3R
SOLOMONS ISLAND  1500   90 84  250/ 11/ 13   N/A
BISHOPS HEAD MD  1500   86 87  240/ 12/ 13 1015.5R
PINEY POINT MD   1500          320/  4/  5   N/A
POTOMAC MD       1600   89 87  260/  8/  8 1013.6F   1/ 2
CAMBRIDGE MD     1500   89 86  250/  6/  9 1014.0R
LEWISETTA VA     1500   89 87  250/  9/ 11 1014.9R
RAPPAHANNOCK LGT 1500          190/ 12/ 13 1016.5R
STINGRAY PT      1600   89 86  170/ 10/ 12 1015.8F   1
YORK RVR RNG VA  1500   87     270/  7/  8 1015.7R
YORKTOWN VA      1500   88 84  250/  7/ 11 1015.7R
JAMESTOWN VA     1600   90 88  240/  8/ 10   N/A     0
DOMINION TERM VA 1500   86     220/  7/  8 1016.5R
KIPTOPEKE VA     1500      82  230/  9/ 10   N/A
CHES BAY BRIDGE  1500   86 80  260/  4/  6 1016.4R
CAPE HENRY VA    1500   90     230/  7/ 11   N/A
WILLOUBY STN VA  1500   85     240/  9/  9   N/A
CAPE HENRY BUOY  1512      77                N/A     2/ 4
1ST LANDING BUOY 1600   85 82  360/  2/  4 1015.8F
CAPE CHARLES BUO 1526      73                N/A     2/ 9
OFFSHORE WE BUOY 1521      81                N/A     3/ 5
64NM E OF VA BCH 1550   81 81  230/ 14/ 16 1016.8S   3/ 5   2/ 9
DUCK PIER NC     1500   84 60  230/  8/  9 1016.8R
44100 DUCK FRF   1505      76                N/A     2/ 4
44056 DUCK FRF   1511      72                N/A     1/ 8
OREGON INLET NC  1500   84 83  210/ 12/ 14 1017.6R
HATTERAS NC      1500   85 82  210/  8/ 11 1018.3R
DIAMOND SHLS NC  1550   84 85  260/  8/  8 1018.7R   3/ 5   2/ 5
CAPE LOOKOUT NC  1600   86     240/  9/ 11 1018.6R
$$



USA.gov is the U.S. government's official web portal to all federal, state and local government web resources and services.